• Em Portugal
  • Lista de países
  • Para 7 dias
  • Temperatura da água
  • Mapas de satélite
  • Mapa do tempo
  • Widgets de tempo
  • user-avatar
    Iniciar Sessão

    Previsão horária em Szczytnica

    Hoje, 17 Julho, Terça-feira

    Tempo Temperatura Precipitação Vento Pressão Humidade
    00:00 +19°C° 0,7 mm 1 m/s 742 mmHg 83%
    01:00 +19°C° 0,7 mm 1 m/s 742 mmHg 86%
    02:00 +18°C° 0,4 mm 1 m/s 742 mmHg 87%
    03:00 +18°C° 0,4 mm 1 m/s 741 mmHg 88%
    04:00 +18°C° 0,4 mm 1 m/s 741 mmHg 90%
    05:00 +18°C° 0,2 mm 2 m/s 741 mmHg 88%
    06:00 +19°C° 0,2 mm 2 m/s 741 mmHg 86%
    07:00 +20°C° 0,2 mm 3 m/s 742 mmHg 85%
    08:00 +20°C° 0,8 mm 3 m/s 742 mmHg 84%
    09:00 +20°C° 0,8 mm 4 m/s 742 mmHg 83%
    10:00 +21°C° 0,8 mm 5 m/s 742 mmHg 82%
    11:00 +21°C° 0,7 mm 5 m/s 741 mmHg 83%
    12:00 +21°C° 0,7 mm 5 m/s 741 mmHg 83%
    13:00 +20°C° 0,7 mm 5 m/s 741 mmHg 84%
    14:00 +20°C° 0,6 mm 5 m/s 741 mmHg 84%
    15:00 +20°C° 0,6 mm 4 m/s 741 mmHg 85%
    16:00 +20°C° 0,6 mm 4 m/s 741 mmHg 85%
    17:00 +20°C° 0,7 mm 4 m/s 741 mmHg 87%
    18:00 +19°C° 0,7 mm 3 m/s 741 mmHg 89%
    19:00 +19°C° 0,7 mm 3 m/s 741 mmHg 91%
    20:00 +19°C° 0,6 mm 3 m/s 741 mmHg 92%
    21:00 +18°C° 0,6 mm 3 m/s 742 mmHg 93%
    22:00 +18°C° 0,6 mm 3 m/s 742 mmHg 94%
    23:00 +18°C° 0,1 mm 3 m/s 742 mmHg 94%

    Amanhã, 18 Julho, Quarta-feira

    Tempo Temperatura Precipitação Vento Pressão Humidade
    00:00 +18°C° 0,1 mm 3 m/s 742 mmHg 95%
    01:00 +18°C° 0,1 mm 3 m/s 742 mmHg 95%
    02:00 +18°C° 0,1 mm 3 m/s 742 mmHg 95%
    03:00 +18°C° 0,1 mm 3 m/s 742 mmHg 96%
    04:00 +17°C° 0,1 mm 3 m/s 742 mmHg 96%
    05:00 +18°C° 0,3 mm 4 m/s 742 mmHg 95%
    06:00 +18°C° 0,3 mm 4 m/s 742 mmHg 93%
    07:00 +19°C° 0,3 mm 5 m/s 742 mmHg 92%
    08:00 +19°C° 0,4 mm 5 m/s 743 mmHg 90%
    09:00 +20°C° 0,4 mm 6 m/s 743 mmHg 88%
    10:00 +20°C° 0,4 mm 6 m/s 743 mmHg 86%
    11:00 +20°C° 0,8 mm 6 m/s 743 mmHg 86%
    12:00 +20°C° 0,8 mm 5 m/s 743 mmHg 86%
    13:00 +20°C° 0,8 mm 5 m/s 744 mmHg 86%
    14:00 +20°C° 0,2 mm 5 m/s 744 mmHg 83%
    15:00 +21°C° 0,2 mm 5 m/s 744 mmHg 81%
    16:00 +21°C° 0,2 mm 5 m/s 744 mmHg 78%
    17:00 +21°C° 0,1 mm 4 m/s 744 mmHg 80%
    18:00 +21°C° 0,1 mm 3 m/s 744 mmHg 82%
    19:00 +21°C° 0,1 mm 2 m/s 744 mmHg 83%
    20:00 +20°C° 0,1 mm 2 m/s 744 mmHg 85%
    21:00 +19°C° 0,1 mm 2 m/s 745 mmHg 87%
    22:00 +19°C° 0,1 mm 2 m/s 745 mmHg 89%
    23:00 +18°C° 0 mm 2 m/s 745 mmHg 90%

    Depois de amanhã, 19 Julho, Quinta-feira

    Tempo Temperatura Precipitação Vento Pressão Humidade
    00:00 +18°C° 0 mm 2 m/s 745 mmHg 91%
    01:00 +18°C° 0 mm 2 m/s 745 mmHg 92%
    02:00 +18°C° 0 mm 3 m/s 745 mmHg 91%
    03:00 +17°C° 0 mm 3 m/s 745 mmHg 91%
    04:00 +17°C° 0 mm 3 m/s 745 mmHg 90%
    05:00 +17°C° 0 mm 3 m/s 745 mmHg 88%
    06:00 +18°C° 0 mm 3 m/s 745 mmHg 86%
    07:00 +18°C° 0 mm 4 m/s 745 mmHg 84%
    08:00 +19°C° 0,1 mm 4 m/s 745 mmHg 81%
    09:00 +20°C° 0,1 mm 4 m/s 746 mmHg 78%
    10:00 +21°C° 0,1 mm 4 m/s 746 mmHg 75%
    11:00 +21°C° 0 mm 4 m/s 746 mmHg 73%
    12:00 +22°C° 0 mm 3 m/s 746 mmHg 72%
    13:00 +22°C° 0 mm 3 m/s 745 mmHg 71%
    14:00 +24°C° 0,1 mm 3 m/s 745 mmHg 68%
    15:00 +25°C° 0,1 mm 3 m/s 745 mmHg 65%
    16:00 +25°C° 0,1 mm 4 m/s 745 mmHg 63%
    17:00 +25°C° 0,3 mm 3 m/s 745 mmHg 68%
    18:00 +24°C° 0,3 mm 3 m/s 745 mmHg 74%
    19:00 +23°C° 0,3 mm 2 m/s 745 mmHg 80%
    20:00 +21°C° 0,1 mm 2 m/s 745 mmHg 85%
    21:00 +19°C° 0,1 mm 2 m/s 746 mmHg 89%
    22:00 +18°C° 0,1 mm 2 m/s 746 mmHg 94%
    23:00 +18°C° 0 mm 2 m/s 746 mmHg 94%

    20 Julho, Sexta-feira

    Tempo Temperatura Precipitação Vento Pressão Humidade
    00:00 +17°C° 0 mm 2 m/s 746 mmHg 94%
    01:00 +17°C° 0 mm 2 m/s 746 mmHg 94%
    02:00 +16°C° 0 mm 2 m/s 746 mmHg 93%
    03:00 +15°C° 0 mm 1 m/s 746 mmHg 92%
    04:00 +15°C° 0 mm 1 m/s 746 mmHg 92%
    05:00 +16°C° 0 mm 2 m/s 746 mmHg 87%
    06:00 +17°C° 0 mm 2 m/s 746 mmHg 81%
    07:00 +19°C° 0 mm 2 m/s 746 mmHg 76%
    08:00 +20°C° 0 mm 2 m/s 746 mmHg 67%
    09:00 +23°C° 0 mm 2 m/s 746 mmHg 57%
    10:00 +25°C° 0 mm 3 m/s 746 mmHg 48%
    11:00 +26°C° 0 mm 3 m/s 746 mmHg 45%
    12:00 +27°C° 0 mm 3 m/s 746 mmHg 41%
    13:00 +28°C° 0 mm 2 m/s 745 mmHg 37%
    14:00 +28°C° 0 mm 2 m/s 745 mmHg 37%
    15:00 +28°C° 0 mm 2 m/s 745 mmHg 36%
    16:00 +28°C° 0 mm 2 m/s 744 mmHg 36%
    17:00 +27°C° 0 mm 2 m/s 744 mmHg 42%
    18:00 +25°C° 0 mm 2 m/s 744 mmHg 48%
    19:00 +24°C° 0 mm 1 m/s 744 mmHg 54%
    20:00 +22°C° 0 mm 1 m/s 744 mmHg 57%
    21:00 +21°C° 0 mm 1 m/s 744 mmHg 60%
    22:00 +19°C° 0 mm 1 m/s 744 mmHg 64%
    23:00 +19°C° 0 mm 1 m/s 744 mmHg 66%

    21 Julho, Sábado

    Tempo Temperatura Precipitação Vento Pressão Humidade
    00:00 +18°C° 0 mm 1 m/s 744 mmHg 68%
    01:00 +18°C° 0 mm 1 m/s 744 mmHg 70%
    02:00 +18°C° 0 mm 1 m/s 744 mmHg 72%
    03:00 +16°C° 0 mm 1 m/s 744 mmHg 73%
    04:00 +16°C° 0 mm 1 m/s 743 mmHg 74%
    05:00 +19°C° 0 mm 1 m/s 743 mmHg 71%
    06:00 +20°C° 0 mm 1 m/s 743 mmHg 67%
    07:00 +22°C° 0 mm 1 m/s 743 mmHg 64%
    08:00 +23°C° 0 mm 1 m/s 743 mmHg 59%
    09:00 +25°C° 0 mm 2 m/s 743 mmHg 54%
    10:00 +26°C° 0 mm 2 m/s 743 mmHg 49%
    11:00 +27°C° 0 mm 2 m/s 743 mmHg 48%
    12:00 +27°C° 0 mm 2 m/s 743 mmHg 47%
    13:00 +27°C° 0 mm 2 m/s 743 mmHg 45%
    14:00 +27°C° 0 mm 2 m/s 743 mmHg 47%
    15:00 +27°C° 0 mm 2 m/s 742 mmHg 49%
    16:00 +27°C° 0 mm 2 m/s 742 mmHg 50%
    17:00 +26°C° 0 mm 2 m/s 742 mmHg 55%
    18:00 +25°C° 0 mm 2 m/s 742 mmHg 59%
    19:00 +24°C° 0 mm 2 m/s 742 mmHg 63%
    20:00 +23°C° 0 mm 2 m/s 742 mmHg 66%
    21:00 +22°C° 0 mm 1 m/s 742 mmHg 69%
    22:00 +20°C° 0 mm 1 m/s 742 mmHg 72%
    23:00 +20°C° 0 mm 1 m/s 742 mmHg 73%

    22 Julho, Domingo

    Tempo Temperatura Precipitação Vento Pressão Humidade
    00:00 +20°C° 0 mm 1 m/s 742 mmHg 74%
    01:00 +19°C° 0 mm 1 m/s 743 mmHg 75%
    02:00 +19°C° 0,2 mm 1 m/s 743 mmHg 76%
    03:00 +19°C° 0,2 mm 1 m/s 743 mmHg 78%
    04:00 +19°C° 0,2 mm 1 m/s 743 mmHg 79%
    05:00 +19°C° 0,3 mm 1 m/s 743 mmHg 81%
    06:00 +18°C° 0,3 mm 2 m/s 743 mmHg 83%
    07:00 +18°C° 0,3 mm 2 m/s 743 mmHg 85%
    08:00 +18°C° 0,3 mm 2 m/s 743 mmHg 86%
    09:00 +18°C° 0,3 mm 2 m/s 743 mmHg 86%
    10:00 +18°C° 0,3 mm 2 m/s 744 mmHg 87%
    11:00 +19°C° 0,2 mm 2 m/s 744 mmHg 81%
    12:00 +20°C° 0,2 mm 2 m/s 744 mmHg 76%
    13:00 +21°C° 0,2 mm 2 m/s 744 mmHg 70%
    14:00 +23°C° 0,3 mm 2 m/s 744 mmHg 66%
    15:00 +24°C° 0,3 mm 3 m/s 744 mmHg 62%
    16:00 +24°C° 0,3 mm 3 m/s 744 mmHg 58%
    17:00 +24°C° 0,2 mm 3 m/s 744 mmHg 62%
    18:00 +23°C° 0,2 mm 2 m/s 744 mmHg 65%
    19:00 +21°C° 0,2 mm 2 m/s 744 mmHg 69%
    20:00 +19°C° 0 mm 2 m/s 744 mmHg 74%
    21:00 +18°C° 0 mm 2 m/s 744 mmHg 78%
    22:00 +18°C° 0 mm 1 m/s 745 mmHg 83%
    23:00 +16°C° 0 mm 1 m/s 745 mmHg 84%
    Mostrar mais